Weather Roundup
Issued by NWS Springfield, MO

Home | Current Version | Previous Version | Text Only | Print | Product List | Glossary On
Versions: 1 2 3 4 5 6 7 8 9 10 11 12 13 14 15 16 17 18 19 20 21 22 23 24 25 26 27 28 29 30 31 32 33 34 35 36 37 38 39 40 41 42 43 44 45 46 47 48 49 50
615
NZUS99 KSGF 272207
HRRSGF

HOURLY WEATHER
NATIONAL WEATHER SERVICE SPRINGFIELD MO
500 PM CDT TUE SEP 27 2016

......SGF CWA......

CITY           SKY/WX    TMP DP  RH WIND       PRES   REMARKS
SPRINGFIELD    SUNNY     80  43  26 SW9       29.95F
JOPLIN         SUNNY     80  49  33 SW12      29.96F
WEST PLAINS    SUNNY     77  46  33 W9        29.98F
ROLLA          SUNNY     77  50  38 SW10      29.90F
OSAGE BEACH    SUNNY     78  51  38 W9        29.91F
BRANSON        SUNNY     77  45  31 NW7       30.00F

......SURROUNDING SGF CWA......

CITY           SKY/WX    TMP DP  RH WIND       PRES   REMARKS
CHANUTE        SUNNY     81  52  36 SW13      29.93F HAZE
PARSONS        SUNNY     82  50  32 SW9       29.95F
COFFEYVILLE    SUNNY     83  49  30 W12       29.94F
EMPORIA        SUNNY     81  49  32 W7        29.92F
GROVE OK       SUNNY     81  50  34 SW7       29.99F
ROGERS AR      SUNNY     77  45  32 W7        30.00F
SILOAM SPRINGS SUNNY     81  43  26 NW7       30.00F
HARRISON AR    SUNNY     76  46  34 NW7       30.00F
NEAR YELLVILLE SUNNY     81  45  28 W5        29.95F

......KANSAS AND MISSOURI......

CITY           SKY/WX    TMP DP  RH WIND       PRES   REMARKS
KANSAS CTY INT SUNNY     78  52  40 W8        29.89F
DOWNTOWN KC    SUNNY     80  52  37 W6        29.88F
COLUMBIA       SUNNY     79  51  37 W9        29.88F
SEDALIA        SUNNY     82  49  31 W10       29.89F
ST JOSEPH      SUNNY     80  45  28 W10       29.88F
ST LOUIS       MOSUNNY   80  45  28 W17       29.86F
SPIRIT OF STL  SUNNY     79  50  36 W14       29.84F
KIRKSVILLE     SUNNY     75  44  33 W15       29.86F
WICHITA        MOSUNNY   81  52  36 SW3       29.95F
TOPEKA         SUNNY     82  49  31 W8        29.89F
OLATHE         SUNNY     78  48  34 W9        29.90F

......TENNESSEE......

CITY           SKY/WX    TMP DP  RH WIND       PRES   REMARKS
MEMPHIS        MOSUNNY   80  39  23 NW6       29.95F
NASHVILLE      SUNNY     78  43  28 W9        29.94F

......ARKANSAS.......

CITY           SKY/WX    TMP DP  RH WIND       PRES   REMARKS
FAYETTEVILLE   SUNNY     78  47  33 CALM      30.00F
FT SMITH       SUNNY     82  37  20 CALM      29.97F
LITTLE ROCK    MOSUNNY   81  42  25 VRB3      29.98F

......OKLAHOMA.......

CITY           SKY/WX    TMP DP  RH WIND       PRES   REMARKS
TULSA          MOSUNNY   83  45  26 SW8       29.95F
PONCA CITY     SUNNY     84  49  29 SW9       29.95F
MCALESTER      SUNNY     83  43  24 NE6       30.01F
OKLAHOMA CITY  MOSUNNY   80  46  30 SW9       30.02F

......IOWA............

CITY           SKY/WX    TMP DP  RH WIND       PRES   REMARKS
DES MOINES     MOSUNNY   75  42  30 W20G26    29.82F
QUAD CITIES    SUNNY     74  35  24 W13G23    29.77S

......ILLINOIS........

CITY           SKY/WX    TMP DP  RH WIND       PRES   REMARKS
QUINCY         SUNNY     76  41  28 W14G24    29.82F
CHICAGO        CLOUDY    67  32  27 W17G25    29.74S




USA.gov is the U.S. government's official web portal to all federal, state and local government web resources and services.